Overview Statistics Trail Chart Weather Telemetry Raw packets
 

This is the latest recevied weather packets stored in our database for station/object KB4RFE. If no packets are shown the sender has not sent any weather packets the latest 10 day(s).

<< 105 106 107 108 109 110 111 >>
Time Temp. Humidity Pressure Rain* Wind** Luminosity Snow
1787834205 25° C 98% 1019.2 hPa 0 mm - 127 W/m² -
1787833902 25° C 98% 1019.4 hPa 0.51 mm - 106 W/m² -
1787833595 25° C 98% 1019.4 hPa 0.51 mm - 88 W/m² -
1787833292 25° C 98% 1019.4 hPa 0.51 mm - 77 W/m² -
1787832987 24.44° C 98% 1019.3 hPa 1.78 mm - 71 W/m² -
1787832684 24.44° C 98% 1019.4 hPa 2.29 mm - 72 W/m² -
1787832381 24.44° C 98% 1019.2 hPa 1.78 mm - 70 W/m² -
1787832076 24.44° C 98% 1019.5 hPa 1.78 mm - 62 W/m² -
1787831775 24.44° C 98% 1019.4 hPa 3.05 mm - 52 W/m² -
1787831474 24.44° C 98% 1019.4 hPa 4.83 mm - 39 W/m² -
1787831173 24.44° C 98% 1019.3 hPa 3.56 mm - 30 W/m² -
1787830870 24.44° C 98% 1019.3 hPa 1.27 mm - 21 W/m² -
1787830569 24.44° C 98% 1019.4 hPa 0 mm - 17 W/m² -
1787830263 24.44° C 98% 1019.2 hPa 0 mm - 3 W/m² -
1787829962 23.89° C 98% 1019 hPa 0 mm - 3 W/m² -
1787829662 23.89° C 98% 1019.1 hPa 0.51 mm - 8 W/m² -
1787829358 23.33° C 98% 1019 hPa 0.51 mm - 7 W/m² -
1787829053 23.33° C 98% 1018.7 hPa 0.51 mm - 9 W/m² -
1787828749 23.33° C 98% 1018.6 hPa 0.51 mm - 6 W/m² -
1787828445 23.33° C 98% 1018.6 hPa 1.27 mm - 4 W/m² -
1787828144 22.78° C 98% 1018.2 hPa 1.27 mm - 3 W/m² -
1787827843 22.78° C 98% 1018.3 hPa 0 mm - 2 W/m² -
1787827539 22.78° C 98% 1018.4 hPa 0 mm - 1 W/m² -
1787827242 22.78° C 98% 1018.1 hPa 0 mm - 0 W/m² -
1787826937 22.78° C 98% 1018 hPa 0 mm - 0 W/m² -

* Rain latest hour (hover to see other rain measurements)
** Current wind speed in m/s (hover to see current wind gust speed)